Simultaneous Nadir Overpasses (SNOs) Predictions

Prediction of SNOs between GOES-16 and NOAA-20 Satellite Orbit:

Table of predicted SNOs for the next 14.0 days since TLE Epoch: 6/22/2018
Index Date Time (GOES-16) GOES-16 Lat,Lon NOAA-20 Lat,Lon Distance(km) Time Diff (sec)
1 06/23/2018 18:32:04 0.01, -75.20 -0.42, -77.19 226.41 80
2 06/24/2018 18:15:59 0.01, -75.21 0.57, -72.65 290.81 80
3 06/26/2018 06:37:48 -0.01, -75.23 0.62, -77.92 307.94 80
4 06/27/2018 06:16:24 -0.02, -75.24 -0.44, -73.40 209.46 80
5 06/28/2018 18:38:22 0.02, -75.26 -0.73, -78.72 393.75 80
6 06/29/2018 18:22:17 0.02, -75.27 0.26, -74.18 124.08 80
7 07/01/2018 06:44:05 -0.03, -75.30 0.93, -79.45 473.52 80
8 07/02/2018 06:22:42 -0.03, -75.32 -0.13, -74.93 44.66 80
9 07/04/2018 18:25:55 0.03, -75.37 -0.04, -75.71 38.93 80
10 07/05/2018 18:09:50 0.03, -75.39 0.96, -71.18 479.81 80




NCC Satellite Simultaneous Nadir Overpasses (SNOs) Prediction Service
